Content
SEND FEEDBACK

Daily
Averages
Monthly
Summary
Slovenia

KANKER, SLOVENIA


Home > Europe > Slovenia
Elevation: 1260 feet     Latitude: 46 13N     Longitude: 014 28E

WEATHER
 
SELECT A DAY
Number of Records: 260,271;   Date Range: 3/24/97 - 9/20/14
 
SHARE

PRINT THIS DATA

[ ← Previous Day ]
WEATHER ALMANAC - JANUARY 31, 2013
[ Next Day → ]
[ °C ]   °F
Weather ElementAverageHighLow
Temperature32.5 °F48.2 °F (1:30 pm)23 °F (6:30 am)
Dewpoint28 °F33.8 °F (11:00 am)21.2 °F (7:00 am)
Humidity85 %100 % (12:30 am)58 % (1:30 pm)
Barometer30.04 in30.15 in (9:30 am)29.95 in (12:30 am)
Wind Speed2.6 mph5.8 mph (6:30 am)
Weather ElementAverage
Visibility5.3 mi
Wind DirectionESE (119.6 °)

Weather ElementTotal
Precipitation---
Heating Degree Days29.4 (Base 65)
Averaged from 47 records on January 31, 2013
WEATHER CONDITIONS BREAKOUT
WIND DIRECTION BREAKOUT
WEATHER BY HOUR - JANUARY 31, 2013
[ °C ]   °F
Local TimeTemperatureDewpointHumidityBarometerVisibilityWind DirectionWind SpeedGust SpeedPrecipitationEventsConditions
12:30 AM26.6 °F26.6 °F100 %29.95 in5.0 miVariable1.2 mphMostly Cloudy
1:00 AM28.4 °F26.6 °F93 %29.95 in5.0 miWest (280°)4.6 mphScattered Clouds
1:30 AM28.4 °F26.6 °F93 %29.95 in5.0 miWest (280°)4.6 mphMostly Cloudy
2:00 AM30.2 °F28.4 °F93 %29.98 in5.0 miWest (260°)4.6 mphMostly Cloudy
2:30 AM30.2 °F28.4 °F93 %29.98 in5.0 miWest (260°)4.6 mphMostly Cloudy
3:00 AM28.4 °F26.6 °F93 %30.01 in5.0 miCalmScattered Clouds
3:30 AM28.4 °F26.6 °F93 %30.04 in5.0 miVariable1.2 mphScattered Clouds
4:00 AM28.4 °F26.6 °F93 %30.01 in5.0 miVariable1.2 mphScattered Clouds
4:30 AM28.4 °F26.6 °F93 %30.01 in5.0 miVariable1.2 mphScattered Clouds
5:00 AM26.6 °F24.8 °F93 %30.01 in5.0 miVariable2.3 mphPartly Cloudy
5:30 AM24.8 °F23.0 °F93 %30.01 in5.0 miVariable2.3 mphPartly Cloudy
6:00 AM24.8 °F23.0 °F93 %30.06 in5.0 miWNW (290°)3.5 mphPartly Cloudy
6:30 AM23.0 °F23.0 °F100 %30.06 in5.0 miWNW (300°)5.8 mphPartly Cloudy
7:00 AM23.0 °F21.2 °F93 %30.06 inSouth (180°)1.2 mphClear
7:30 AM23.0 °F21.2 °F93 %30.09 in6.2 miCalmPartly Cloudy
8:00 AM23.0 °F21.2 °F93 %30.09 in6.2 miCalmFogShallow Fog
8:30 AM23.0 °F21.2 °F93 %30.12 in6.2 miWNW (290°)3.5 mphPartly Cloudy
9:00 AM28.4 °F28.4 °F100 %30.12 in6.2 miNNW (330°)3.5 mphPartly Cloudy
9:30 AM30.2 °F28.4 °F93 %30.15 inVariable2.3 mphClear
10:00 AM32.0 °F28.4 °F87 %30.15 inWNW (300°)2.3 mphClear
10:30 AM35.6 °F30.2 °F81 %30.15 inWNW (300°)3.5 mphClear
11:00 AM39.2 °F33.8 °F81 %30.12 inVariable2.3 mphClear
11:30 AM39.2 °F33.8 °F81 %30.12 inWNW (290°)5.8 mphClear
12:00 PM42.8 °F33.8 °F70 %30.12 inWNW (290°)4.6 mphClear
12:30 PM42.8 °F33.8 °F70 %30.09 inENE (60°)4.6 mphClear
1:00 PM44.6 °F33.8 °F66 %30.09 inEast (80°)4.6 mphClear
1:30 PM48.2 °F33.8 °F58 %30.09 inVariable1.2 mphClear
2:00 PM48.2 °F33.8 °F58 %30.09 inEast (80°)2.3 mphClear
2:30 PM46.4 °F33.8 °F62 %30.06 inENE (70°)4.6 mphClear
3:00 PM48.2 °F33.8 °F58 %30.06 inVariable2.3 mphClear
3:30 PM46.4 °F33.8 °F62 %30.04 inEast (80°)4.6 mphClear
4:00 PM46.4 °F33.8 °F62 %30.04 inEast (80°)4.6 mphClear
4:30 PM44.6 °F33.8 °F66 %30.04 inENE (70°)3.5 mphClear
5:00 PM39.2 °F32.0 °F75 %30.01 inVariable1.2 mphClear
5:30 PM35.6 °F30.2 °F81 %30.01 inVariable2.3 mphClear
6:00 PM32.0 °F28.4 °F87 %30.01 inWest (280°)3.5 mphClear
6:30 PM32.0 °F28.4 °F87 %30.01 inVariable2.3 mphClear
7:00 PM30.2 °F26.6 °F86 %30.01 inWNW (300°)3.5 mphClear
7:30 PM28.4 °F26.6 °F93 %30.01 inWNW (300°)1.2 mphClear
8:00 PM28.4 °F24.8 °F86 %29.98 inCalmClear
8:30 PM28.4 °F26.6 °F93 %29.98 inVariable1.2 mphClear
9:00 PM26.6 °F24.8 °F93 %29.98 inWNW (290°)3.5 mphClear
9:30 PM26.6 °F24.8 °F93 %29.98 inWest (280°)4.6 mphClear
10:00 PM28.4 °F26.6 °F93 %29.98 inCalmClear
10:30 PM26.6 °F24.8 °F93 %29.98 inCalmClear
11:00 PM26.6 °F24.8 °F93 %29.98 inCalmClear
11:30 PM26.6 °F24.8 °F93 %29.98 inCalmClear
Hourly data recorded from LJLJ, located miles away from Kanker, Slovenia







STORIES FROM OUR PARTNERS